User: anonymous   Login
Location: Stoke Bliss
(52.2667°N, 2.5167°W)
Time: 14:30:31
(UTC+00:00)
Language:

Cosmos 2360 Rocket - Orbit

View from above orbital plane
View from above orbital plane
View from above satellite
View from above satellite

Ground track
Ground track

The orbit data is extracted from the following two-line orbital elements,

1 25407U 98045B   21128.90028318 -.00000065  00000-0 -85392-5 0  9994
2 25407  71.0108 293.6217 0008464 212.1408 147.9200 14.15840074177414
Epoch (UTC): 08 May 2021 21:36:24
Eccentricity: 0.0008464
inclination: 71.0108°
perigee height: 833 km
apogee height: 845 km
right ascension of ascending node: 293.6217°
argument of perigee: 212.1408°
revolutions per day: 14.15840074
mean anomaly at epoch: 147.9200°
orbit number at epoch: 17741

The dashed part of the orbit path shows where the satellite is in the earth's shadow,  

DLR